Location: Boiro
(42.6475°N, 8.8834°W)
Time: 12:24:12
(UTC+02:00)

deb Agena D - Pass Details

Date: 12 July 2022
Orbit: 997 x 1025 km, 100.1° (Epoch: 16 August)

Event Time Altitude Azimuth Distance (km) Brightness Sun altitude
Exits shadow 02:07:29 47° 209° (SSW) 1,328 ? -24.9°
Maximum altitude 02:08:59 59° 257° (WSW) 1,175 ? -24.9°
Drops below altitude 10° 02:15:16 10° 337° (NNW) 2,825 ? -25.1°
Sets 02:17:49 0° 341° (NNW) 3,778 ? -25.1°
